Wind_Speed
50 50 49 46 42 40 38 36 32 29 28 26 27 30 33 35 31 28 27 27 27 27 28 28 29 30 29 29 31 32 34 35 35 33 30 29 28 24 21 20 18 14 13 15 17 19 19 19 19 19 19 19 18 17 16 15 15 15 14 14 14 14 13 14 16 15 14 14 15 17 17 17 17 17 17 17 17 17 16 16 16 15 14 14 14 15
52 52 49 45 41 40 39 36 33 31 30 28 27 29 31 32 30 28 29 29 29 30 29 29 31 32 30 31 31 30 31 32 32 31 27 25 26 24 21 17 13 10 12 16 17 19 20 20 19 20 21 21 20 18 17 17 16 16 16 16 16 16 17 17 16 15 15 16 17 18 18 18 17 18 18 18 18 18 18 17 17 16 16 15 16 17
54 53 49 45 43 42 41 38 35 33 31 30 28 27 28 29 30 30 31 31 32 32 30 29 31 32 32 32 31 29 28 27 27 27 23 22 24 24 20 14 8 7 10 14 16 16 18 19 20 21 22 21 20 19 18 18 18 18 18 17 17 17 17 17 16 16 16 17 18 18 18 18 18 18 19 19 18 18 18 18 18 17 17 17 17 18
54 52 49 46 45 44 42 40 37 34 33 32 30 27 26 28 30 32 33 34 33 33 31 30 30 31 32 33 30 30 29 26 26 26 19 19 22 21 18 12 8 8 10 12 13 14 15 18 19 20 21 20 19 18 18 18 18 18 18 18 17 18 18 18 18 18 18 19 19 19 19 19 19 19 19 19 19 19 19 19 19 18 18 18 19 19
52 50 48 46 45 45 44 41 38 36 35 33 31 27 26 29 32 33 35 36 34 33 32 31 31 32 33 33 30 30 31 29 29 27 19 17 19 18 15 11 9 10 12 13 13 13 14 15 16 17 18 18 18 18 18 18 18 18 18 18 18 19 20 20 20 20 20 20 20 21 21 21 21 21 20 20 20 20 20 20 20 20 20 20 20 20
52 49 47 46 46 45 44 42 39 37 36 34 32 28 27 30 33 35 36 36 35 34 33 32 33 33 34 33 30 29 29 27 30 30 22 18 15 14 13 10 10 12 15 16 14 12 12 13 13 13 14 15 16 17 17 18 18 18 19 19 20 20 21 21 21 21 21 21 21 21 22 22 22 22 22 22 21 21 21 21 22 22 22 22 22 21
52 49 47 47 46 46 45 42 39 38 37 35 31 27 28 31 34 37 37 38 37 35 32 33 34 33 33 32 30 30 28 26 29 28 23 18 13 11 11 10 11 14 17 17 14 12 11 12 12 12 12 12 13 15 17 18 19 20 21 21 21 21 21 22 21 21 22 22 22 22 23 23 23 24 23 23 22 22 22 22 22 23 23 23 23 22
51 48 47 48 48 47 46 43 40 39 39 36 30 28 29 31 34 38 39 39 38 35 33 33 34 33 32 32 31 30 29 28 30 26 21 17 14 12 12 12 13 15 14 13 12 13 13 14 14 15 15 15 16 18 19 21 22 23 23 23 22 22 22 22 22 22 22 22 23 23 23 24 24 24 24 23 23 23 23 23 23 23 24 24 24 23
49 48 47 48 48 49 47 43 40 40 40 34 29 29 29 31 35 38 39 41 39 37 36 35 34 33 33 32 31 29 27 27 26 21 16 15 15 14 13 13 14 15 14 13 14 15 15 16 16 18 19 20 20 21 22 23 24 25 25 25 24 23 22 22 23 23 22 22 23 23 23 23 23 23 23 23 23 23 24 24 24 24 25 24 25 25
47 46 46 47 47 47 45 42 40 40 38 32 30 32 32 35 39 40 42 42 41 40 39 36 35 34 33 32 31 30 26 22 18 16 14 13 15 15 14 14 15 16 17 17 18 18 17 17 18 18 20 20 21 21 22 24 25 26 26 26 25 24 23 23 23 24 23 23 23 23 22 22 23 23 23 23 23 24 24 25 25 25 25 25 25 25
46 46 46 47 47 45 43 40 40 39 36 32 33 35 36 40 43 43 44 44 44 43 40 37 37 35 34 32 31 28 22 17 15 12 12 13 13 14 15 15 16 17 18 20 21 21 20 19 19 19 19 19 20 21 22 24 26 27 27 27 25 24 24 24 24 24 24 23 23 23 23 23 23 23 23 23 24 24 24 25 25 25 26 26 26 25
47 47 47 48 47 44 41 39 39 40 37 34 36 38 40 44 45 45 46 46 47 44 39 39 40 37 36 34 30 26 21 18 16 13 12 13 14 14 15 17 18 19 20 20 22 23 22 22 22 21 21 20 20 21 23 24 26 27 27 27 26 26 25 25 25 25 24 23 23 23 23 23 24 24 23 24 24 24 24 25 25 25 26 26 26 26
47 48 47 48 48 46 43 41 42 43 41 39 40 43 45 46 47 47 48 48 47 43 40 42 42 40 38 34 31 27 24 20 18 17 17 17 16 16 17 19 20 21 22 22 23 24 24 25 25 25 24 23 22 23 23 25 27 27 28 28 27 27 27 26 25 25 24 24 24 24 25 25 24 24 24 24 24 24 24 25 25 25 26 27 27 27
48 49 48 48 49 48 46 46 47 46 44 44 44 47 50 50 51 51 51 49 47 44 42 42 42 41 39 36 34 31 26 23 21 21 21 20 19 19 20 21 22 23 25 27 27 27 27 27 26 26 26 25 25 25 24 25 27 28 28 28 29 28 28 27 26 25 24 24 25 25 25 25 25 25 24 24 24 24 25 25 25 26 27 27 27 27
48 49 49 50 50 49 49 48 47 45 44 44 45 47 51 52 52 52 51 49 47 45 43 43 43 43 42 39 36 32 29 27 26 24 23 23 22 21 21 22 24 25 27 29 29 29 29 29 27 26 26 26 27 27 26 26 27 28 29 29 30 29 28 28 27 26 25 25 26 26 26 25 25 25 25 25 25 25 26 26 26 27 27 28 28 28
47 48 48 49 49 49 50 49 46 44 44 44 46 47 50 52 51 49 47 46 46 44 44 44 45 44 42 39 35 33 32 31 30 27 25 24 23 23 23 24 26 26 26 27 28 29 29 29 28 27 27 27 28 28 28 27 27 29 30 30 30 30 29 29 28 27 26 26 27 26 26 26 26 26 27 27 27 27 27 27 28 28 29 29 29 29
47 46 45 46 46 47 49 48 46 46 46 47 49 49 47 49 50 48 46 45 45 45 45 46 45 42 41 38 35 35 35 34 31 28 26 25 24 24 25 26 26 26 25 26 27 28 28 28 28 27 26 27 28 29 28 28 28 29 30 31 31 31 30 30 28 27 27 28 28 27 27 27 28 28 28 28 29 30 30 30 30 30 30 30 31 31
46 45 44 45 45 45 45 46 45 45 46 47 49 48 46 48 50 50 47 45 45 46 46 47 45 42 41 39 36 35 36 35 32 30 28 27 26 26 26 25 25 25 25 26 27 27 27 27 27 26 26 26 27 28 28 28 29 30 30 31 31 31 31 30 29 29 28 28 28 28 28 28 29 30 30 31 31 31 31 31 31 31 31 32 32 32
44 44 43 44 44 43 43 44 45 45 45 45 46 47 48 50 52 52 51 48 47 47 47 46 44 42 41 40 37 35 34 32 32 31 30 29 28 27 27 25 25 26 27 27 27 27 27 27 27 27 26 25 26 26 27 28 29 30 31 31 31 31 31 31 30 30 29 29 28 28 28 29 30 31 32 33 33 33 32 32 32 32 32 33 33 33
43 43 42 43 43 42 43 45 47 48 46 45 46 47 49 50 51 52 53 51 49 47 46 46 45 44 42 41 38 35 33 31 31 31 31 30 29 28 28 27 28 28 28 28 28 28 27 27 27 28 27 27 27 27 27 27 27 29 31 32 32 32 33 32 31 30 30 30 29 29 30 30 32 33 34 34 34 34 33 33 33 33 33 33 34 34
42 42 42 42 41 42 44 46 46 48 48 47 48 49 50 52 53 52 53 53 50 48 48 48 46 43 42 41 39 37 35 33 32 32 31 30 29 29 30 30 31 31 31 30 29 29 27 26 26 27 27 28 29 28 28 27 28 29 31 32 33 34 34 33 32 31 31 31 31 31 31 32 33 34 34 34 34 34 34 34 34 34 34 34 34 35
42 41 41 41 41 42 44 44 43 45 47 47 48 50 50 52 54 54 54 54 52 49 49 49 47 43 42 43 41 39 38 36 35 34 33 32 32 33 33 33 34 35 34 33 31 30 29 28 29 29 28 28 29 29 28 28 29 30 31 33 34 35 34 33 32 32 32 32 32 33 33 33 34 34 35 35 35 35 35 35 35 35 35 35 35 36
40 40 40 40 41 42 41 41 41 42 44 45 46 47 47 51 54 54 55 55 53 52 51 50 48 46 45 45 43 41 40 38 37 36 35 35 35 35 35 36 36 36 35 34 34 33 33 33 33 34 33 31 31 30 29 29 30 31 32 34 34 34 34 33 33 32 33 33 34 34 34 34 35 35 36 35 35 36 36 36 36 36 36 36 36 37
39 39 40 39 40 40 40 39 39 41 43 45 46 46 46 48 52 54 54 54 53 53 52 51 51 49 48 47 45 43 42 40 38 37 37 37 37 37 37 37 37 37 37 37 38 38 37 35 35 36 35 34 33 32 31 30 31 33 34 34 35 34 34 34 33 33 34 35 35 36 36 36 36 36 36 36 36 36 36 36 36 37 37 37 38 39
39 39 40 40 39 40 40 40 39 41 43 44 46 46 46 47 50 54 55 55 54 54 54 54 53 51 49 49 48 46 44 41 39 38 37 36 37 37 38 38 39 40 40 40 40 39 36 33 33 35 35 34 33 32 32 31 32 34 34 35 35 35 35 35 35 36 36 37 37 37 37 37 38 37 37 37 37 37 37 37 37 37 38 38 39 40
38 38 40 42 42 42 43 43 43 43 43 44 45 45 45 46 48 52 54 56 56 55 55 55 55 54 51 50 49 46 44 42 40 39 38 38 39 40 41 41 42 41 39 38 37 37 35 32 32 32 32 32 31 31 31 32 33 34 35 35 35 35 35 36 37 38 38 38 38 38 38 38 39 38 38 38 38 38 37 37 38 38 39 39 40 41
37 37 39 42 43 42 41 41 42 41 40 41 42 41 42 44 46 49 52 55 56 54 54 55 54 54 53 52 49 46 42 40 39 39 39 39 41 42 42 41 40 37 34 33 33 34 34 34 33 33 32 31 31 31 31 32 33 34 35 35 35 35 36 37 38 38 38 38 38 38 39 39 39 39 39 40 39 38 38 38 38 39 39 40 41 41
39 38 40 43 42 41 40 38 38 38 38 39 38 38 40 42 44 47 50 52 53 53 53 53 52 52 52 50 48 45 42 40 39 39 40 41 42 41 40 38 35 33 31 31 31 30 31 32 34 35 34 33 32 31 31 32 33 34 35 35 35 35 36 37 37 38 38 38 38 39 40 40 40 41 41 41 40 39 39 38 39 39 40 40 41 42
39 39 41 43 42 40 41 40 37 36 37 38 37 37 39 41 43 45 47 48 49 51 51 51 51 50 48 46 44 43 42 42 42 42 42 42 40 38 36 35 34 32 31 30 29 28 28 28 30 32 33 33 32 32 32 33 34 35 35 35 36 36 36 36 37 37 38 38 39 40 40 40 41 42 41 40 39 39 39 39 39 40 40 41 41 42
40 39 42 45 42 38 39 40 38 36 36 37 37 37 38 38 40 43 45 46 47 49 50 51 51 49 48 46 44 43 42 42 42 42 41 39 36 34 34 34 33 31 31 30 30 29 28 27 27 29 31 32 32 32 33 34 35 36 36 36 36 36 36 36 37 38 38 39 39 40 40 41 42 41 40 40 39 39 39 40 40 40 40 41 41 42
42 41 43 46 43 38 37 38 37 37 36 35 36 37 37 37 39 42 44 45 46 47 49 51 51 50 49 46 44 42 41 40 40 39 37 36 34 33 33 32 30 29 29 29 29 29 27 26 26 27 29 31 32 32 33 34 35 36 36 36 36 37 37 37 38 38 39 39 40 40 41 42 41 40 39 39 39 39 40 40 40 40 41 41 41 41
44 44 44 45 45 42 39 37 36 36 36 35 34 35 36 37 39 41 43 44 44 45 47 50 51 50 48 46 44 42 39 38 38 37 36 35 35 34 33 31 29 29 28 28 28 28 27 26 25 26 28 30 31 32 33 34 34 35 36 36 37 38 38 38 39 39 39 39 40 41 41 40 39 39 39 39 39 40 40 40 39 39 39 39 39 40
47 46 44 45 46 44 39 36 36 37 37 37 36 34 35 37 40 42 43 44 45 45 46 47 48 48 47 45 43 42 40 38 37 37 37 35 34 35 35 33 31 31 30 30 28 27 27 27 26 26 28 29 30 31 31 32 33 35 36 37 38 38 38 38 38 39 39 40 40 39 38 38 38 38 38 39 39 39 39 38 38 38 38 39 39 41
49 47 44 42 45 46 41 36 35 37 38 38 38 37 36 36 39 43 44 44 44 44 44 45 46 47 46 44 43 41 39 38 37 37 37 35 34 35 35 33 31 32 33 33 30 28 26 27 27 27 28 29 30 30 31 32 33 34 35 36 37 37 37 38 38 38 38 38 37 37 37 37 37 38 38 39 38 38 37 37 37 38 39 40 41 42
49 47 42 38 40 44 42 36 34 35 35 35 36 37 36 35 37 42 44 45 44 43 44 44 44 45 45 44 43 41 40 38 36 35 34 34 34 34 33 31 28 28 30 31 31 29 27 27 28 28 28 29 29 30 31 31 32 33 34 35 35 35 36 36 37 37 36 35 35 35 36 37 37 38 38 38 37 37 37 37 38 39 40 41 41 42
49 46 41 36 36 40 40 37 36 36 36 35 34 35 36 35 35 39 43 44 45 45 44 44 43 43 43 43 43 42 41 39 37 35 34 34 34 34 32 30 27 26 25 26 27 27 27 27 28 28 28 28 29 29 30 31 31 32 33 33 34 34 35 34 34 33 33 34 35 35 36 37 38 38 37 37 36 37 37 38 39 39 40 40 41 42
50 47 42 36 35 38 40 37 35 37 38 37 34 34 34 34 34 36 39 42 45 46 45 44 44 44 43 42 41 41 41 40 38 37 35 35 34 34 33 31 29 28 27 26 26 26 26 27 28 28 28 29 29 29 30 30 31 31 32 32 33 32 32 31 31 32 33 34 34 35 36 37 37 36 36 36 36 37 37 38 38 39 39 40 41 42
51 48 44 40 37 39 41 39 36 36 38 36 34 34 34 34 34 34 37 40 43 44 44 44 44 44 43 43 42 41 41 40 39 38 37 36 35 35 34 32 30 30 29 28 27 27 27 28 28 28 29 29 29 29 29 29 29 30 30 30 30 30 30 30 31 32 33 33 35 36 36 36 35 35 35 35 36 36 36 37 37 38 39 40 41 43
53 49 46 45 43 41 42 42 39 38 37 36 35 35 34 35 35 35 36 38 39 41 42 43 43 43 42 42 41 39 38 38 38 39 39 39 39 38 36 33 32 31 31 29 28 28 28 28 27 27 27 28 28 27 27 27 27 28 28 28 28 29 29 30 32 32 33 34 35 35 35 34 33 34 34 34 35 35 35 36 37 38 39 40 42 43
52 52 48 48 48 46 44 44 43 41 38 37 37 37 36 36 36 37 36 35 36 40 43 44 43 42 40 39 38 36 36 36 38 39 40 41 41 40 37 34 33 33 31 29 27 27 27 26 26 26 26 26 26 26 26 26 26 27 27 27 28 29 30 31 32 33 33 33 33 33 32 32 32 33 33 33 34 34 35 36 37 38 40 41 42 44
49 52 50 48 49 49 47 47 46 45 42 41 40 40 38 38 38 36 34 32 34 39 42 42 42 41 40 39 38 37 37 37 36 36 37 37 38 37 35 34 34 33 29 27 26 25 25 25 25 25 25 25 25 25 26 26 26 26 27 27 28 29 30 31 32 32 32 31 31 31 31 31 32 32 32 32 33 34 35 36 37 39 40 41 42 44
47 50 50 47 47 47 47 47 47 47 45 43 42 41 40 40 39 34 32 32 34 35 36 35 36 36 36 36 36 36 36 34 32 31 33 33 34 34 34 34 34 31 27 25 24 24 24 25 25 25 25 25 25 25 26 26 27 27 28 28 29 29 29 30 30 30 29 29 29 30 30 30 30 30 30 31 32 34 35 36 37 39 40 41 42 42
41 43 44 43 41 41 42 41 42 43 44 43 42 41 40 40 38 35 34 34 34 33 32 31 30 30 30 31 32 33 33 31 29 30 31 32 33 33 34 34 32 28 25 24 24 24 24 24 24 24 25 25 25 26 26 27 27 28 28 28 28 28 28 28 27 27 27 28 28 29 29 29 29 29 30 32 33 34 35 36 37 38 39 40 40 41
36 35 36 36 35 34 35 34 33 35 36 37 37 36 37 38 38 37 36 34 33 34 34 32 31 30 29 28 29 30 30 29 29 30 30 30 31 31 31 29 27 25 25 25 25 25 24 24 24 24 25 25 25 25 26 27 27 27 27 27 26 26 25 25 25 26 26 27 27 27 27 27 29 30 31 32 33 35 35 36 37 37 38 38 38 39
31 30 30 30 31 31 32 32 31 31 31 32 32 32 32 33 36 37 37 35 35 35 35 34 34 33 31 29 28 28 29 30 30 29 28 27 27 26 26 25 25 25 25 25 25 25 24 24 24 24 24 24 24 25 26 26 26 25 24 24 23 23 23 24 24 25 25 25 25 26 26 28 29 31 32 33 34 35 35 35 36 36 36 36 37 37
29 28 28 28 28 28 29 29 29 29 28 29 31 30 30 30 31 33 35 36 36 35 33 33 32 32 31 30 30 30 29 29 28 27 26 25 24 24 24 25 25 25 25 25 25 25 25 24 24 24 25 24 24 24 24 24 23 22 22 21 22 22 23 24 24 24 24 24 25 25 27 29 30 31 33 33 34 34 34 34 34 34 34 35 35 36
27 28 28 28 27 26 26 25 26 26 27 28 29 29 28 28 28 28 30 32 34 34 33 32 31 31 30 30 30 29 28 26 26 26 26 25 23 24 25 25 25 26 27 27 27 26 25 25 25 25 24 24 23 23 23 22 21 21 20 21 21 22 23 23 23 22 22 23 25 26 28 29 30 31 32 33 33 33 33 33 33 32 33 33 34 35
22 24 25 24 24 23 23 23 23 23 24 26 27 27 27 27 26 26 26 27 29 31 33 32 31 30 29 29 29 28 27 27 26 26 25 23 23 24 26 28 28 28 28 27 27 26 25 25 25 24 23 23 22 22 21 20 20 20 20 20 21 21 21 21 21 21 22 24 25 27 28 29 30 31 32 32 33 32 32 31 31 30 31 32 33 34
17 18 19 20 20 20 20 20 20 21 22 23 24 26 27 27 27 26 25 24 24 27 29 30 30 29 28 28 28 28 28 27 27 26 24 23 23 25 27 28 28 28 27 26 26 26 25 25 24 23 22 22 21 20 19 19 19 19 20 20 20 20 20 19 20 21 23 24 26 27 28 29 30 31 31 32 32 31 30 29 28 29 30 32 32 33
15 16 17 18 19 20 20 21 21 22 23 24 24 25 26 27 27 27 25 24 24 25 26 28 29 29 29 29 29 29 28 28 26 25 25 25 26 27 26 26 26 26 26 26 26 25 24 24 23 22 21 20 19 19 19 19 19 19 19 19 18 18 18 19 20 21 23 24 25 27 28 29 29 30 30 30 30 29 28 27 27 28 30 31 32 33
15 16 17 18 20 22 24 25 25 23 23 23 24 25 26 27 27 27 26 25 25 25 27 28 28 29 29 29 28 28 27 27 27 26 26 26 26 26 26 26 26 27 26 26 25 25 24 23 22 21 20 19 18 19 19 19 19 18 18 17 17 17 18 19 20 21 23 24 25 26 27 28 29 29 29 28 27 26 25 26 27 28 30 30 31 32
Wind_Direction
215 216 216 216 217 219 220 220 217 215 215 214 211 212 213 215 217 219 221 221 220 218 214 216 220 223 225 230 234 234 230 227 226 224 223 224 224 227 231 232 233 237 239 238 238 241 244 244 246 249 252 253 253 253 255 260 267 268 264 261 264 261 252 253 263 269 270 269 270 273 279 286 293 297 299 301 301 299 299 301 301 301 298 294 292 292
215 216 215 214 215 217 219 218 215 214 214 214 212 211 211 212 212 211 213 214 213 214 214 215 221 225 225 227 231 230 232 235 227 217 215 220 224 229 233 229 223 231 236 237 242 244 244 243 244 247 250 253 254 254 256 258 259 258 257 256 255 255 255 260 267 271 273 272 271 273 278 285 291 296 300 304 306 304 301 300 300 301 300 296 293 293
216 216 213 211 212 214 216 215 213 212 213 214 213 210 207 208 208 206 208 209 210 213 213 215 222 227 228 229 230 226 231 239 226 211 211 216 223 229 231 226 218 230 239 241 248 250 247 245 243 245 248 251 253 254 254 255 255 255 254 251 251 255 261 267 272 272 270 268 268 271 276 282 288 294 299 303 305 303 300 299 299 300 300 297 295 293
217 216 211 210 211 212 213 213 211 210 212 213 212 208 201 201 203 203 205 208 209 212 214 217 222 227 230 231 231 226 225 230 221 211 211 214 220 227 230 227 222 230 241 248 257 258 253 246 242 243 246 249 251 251 252 253 255 256 253 252 257 265 270 272 272 269 267 267 269 272 276 280 286 291 297 301 303 301 299 298 298 300 300 298 297 296
218 216 212 210 211 212 213 211 209 208 210 212 211 205 197 199 201 201 206 208 208 210 211 214 220 226 231 231 230 226 223 226 221 215 218 219 220 226 230 228 225 230 240 251 266 266 256 247 243 244 247 251 254 254 254 254 255 256 255 259 265 270 271 270 268 267 267 268 270 273 276 280 284 288 294 299 302 301 299 298 298 300 300 299 299 298
217 215 211 211 211 213 214 211 208 207 209 212 210 203 196 200 201 202 206 208 208 210 208 210 216 222 228 230 227 223 224 229 221 217 224 226 224 230 233 233 230 234 244 256 267 263 251 245 243 249 254 258 262 262 262 261 259 259 260 264 268 269 268 267 267 268 270 272 274 276 278 281 283 287 291 295 299 299 298 297 297 299 300 299 299 299
216 213 210 210 211 213 214 211 207 206 209 211 208 200 198 201 201 202 206 207 208 208 206 211 217 220 225 228 227 223 225 227 221 222 228 230 235 241 239 242 240 241 249 256 257 252 253 252 246 252 260 268 273 272 271 269 266 265 265 268 269 268 267 267 268 270 272 274 275 277 279 281 283 285 288 292 296 298 297 295 295 296 298 298 299 299
215 211 209 210 210 212 213 211 207 206 208 208 202 195 199 202 201 202 206 207 208 205 207 215 220 221 222 226 227 226 228 228 226 231 238 240 249 250 245 247 244 246 250 247 247 255 266 264 255 255 261 269 274 275 275 272 270 269 268 269 268 267 267 267 268 269 271 272 273 274 275 277 279 282 285 289 293 295 294 292 291 291 293 295 296 297
215 211 210 210 210 211 212 209 207 208 208 204 193 189 195 199 200 203 205 206 206 205 210 217 220 221 223 224 226 228 232 233 235 244 252 254 258 256 254 252 250 255 254 247 254 264 269 268 262 260 261 265 269 271 271 270 269 269 268 268 266 267 267 267 268 268 268 269 270 272 273 274 276 279 282 285 288 289 290 290 289 289 290 292 294 295
215 212 210 211 211 211 211 208 207 208 207 199 186 185 192 196 197 200 203 204 205 207 213 219 221 223 225 226 227 228 230 236 246 262 270 266 263 262 259 255 255 259 257 256 261 264 264 265 265 264 262 261 262 264 265 266 267 267 267 267 267 268 268 268 268 267 267 267 269 271 273 275 277 279 281 283 285 286 288 289 289 290 291 292 294 296
215 212 210 211 211 210 210 208 207 207 204 195 185 183 189 193 193 198 201 202 205 211 215 218 220 223 224 227 231 233 232 237 247 260 266 260 256 257 257 257 259 259 259 261 262 261 258 258 261 263 261 258 258 261 263 265 266 266 267 268 268 269 269 269 267 266 267 268 271 273 275 278 280 281 282 282 284 285 287 288 289 290 291 292 293 295
214 212 210 211 210 207 207 206 207 205 199 192 187 184 187 191 191 196 201 202 209 215 212 211 216 219 221 225 229 234 235 236 238 238 240 241 241 247 255 259 261 262 263 264 263 262 257 255 260 261 259 257 258 260 262 264 265 266 268 268 269 269 269 269 268 267 269 271 274 276 278 279 280 281 282 282 283 284 286 287 289 290 291 292 293 294
211 212 210 210 209 206 203 203 205 204 197 193 190 186 187 190 192 198 203 207 213 215 209 207 211 216 221 223 223 228 232 234 234 233 232 235 239 248 255 259 262 264 267 269 268 264 259 258 263 263 259 257 259 261 262 263 264 265 267 267 267 268 268 268 268 268 270 273 276 277 279 280 281 282 283 283 284 284 286 287 288 289 290 291 293 294
208 210 209 208 208 205 202 203 205 205 199 195 194 190 188 191 196 202 206 210 215 214 209 207 209 216 223 223 219 222 227 230 231 234 238 243 250 255 257 260 262 265 270 274 272 266 261 261 265 265 261 259 260 262 262 261 262 264 264 263 264 265 266 267 268 269 271 274 276 278 280 282 283 284 285 285 286 286 286 287 287 288 288 290 292 294
208 209 208 208 207 204 203 203 206 206 201 198 198 194 191 193 199 205 207 210 215 215 213 210 211 219 226 225 220 218 221 225 228 232 237 243 249 254 257 261 263 266 270 272 270 266 263 263 265 267 265 262 261 262 263 262 261 262 262 261 262 264 265 267 267 268 270 273 277 279 281 282 284 286 286 287 288 288 288 287 288 288 289 291 293 295
210 210 209 208 207 204 203 202 202 203 200 198 199 198 196 196 200 205 208 212 217 218 218 217 218 225 229 228 221 216 218 224 228 231 234 238 245 252 257 261 265 268 269 268 266 264 262 263 265 267 267 265 262 262 263 263 261 260 260 260 261 263 265 266 267 268 270 273 275 278 280 282 285 287 289 290 290 289 289 290 291 292 292 293 294 295
210 211 209 208 208 206 205 202 200 201 199 197 199 202 201 198 200 205 208 213 217 219 221 223 225 229 230 227 220 217 219 224 229 233 236 241 246 251 255 261 266 267 266 264 264 263 262 263 264 265 265 264 264 264 265 264 261 260 260 259 260 262 264 266 267 268 269 272 275 279 282 285 287 290 292 293 293 292 292 293 294 295 295 295 295 295
209 210 208 208 207 207 207 204 201 202 201 199 200 203 200 198 202 205 208 213 216 218 222 225 227 228 228 227 224 222 223 225 228 232 237 243 248 250 254 261 265 263 261 263 263 261 261 261 262 263 263 263 264 266 267 265 263 261 260 258 258 260 263 265 266 266 268 272 276 281 285 288 291 293 294 294 294 295 295 294 294 295 295 295 295 294
209 209 208 208 206 204 207 206 202 202 202 201 201 202 200 200 202 205 207 212 215 217 220 224 227 227 228 230 231 230 231 230 229 231 237 245 249 252 256 261 262 260 260 261 259 258 259 259 260 262 262 263 263 264 265 265 264 261 258 257 258 259 261 263 263 264 267 271 275 280 284 288 290 292 292 293 293 294 295 295 294 294 294 294 294 293
209 207 207 208 206 203 205 207 205 203 201 200 201 201 201 203 204 206 209 212 215 219 222 225 229 229 230 233 234 234 235 235 232 234 240 245 249 252 256 258 256 256 258 258 257 257 259 260 262 263 262 261 262 263 265 266 264 261 257 255 256 257 259 260 261 263 266 270 275 280 283 286 288 289 291 292 292 293 294 294 293 293 293 293 293 293
209 207 206 206 205 204 207 208 208 207 203 201 201 200 200 203 205 207 210 213 216 220 224 228 232 234 235 237 237 236 235 232 233 237 240 243 245 248 250 251 252 255 258 258 259 259 261 264 266 266 263 262 261 263 265 266 265 261 257 254 254 256 258 260 261 263 266 270 275 280 284 286 288 289 291 292 292 293 294 294 294 294 294 294 294 294
207 205 204 204 203 205 209 209 208 210 207 204 204 203 201 202 205 207 210 213 215 220 224 228 233 236 237 239 239 238 236 233 234 238 241 244 245 246 248 251 255 259 261 261 260 260 262 266 268 268 265 263 263 263 263 264 263 261 257 255 254 255 257 259 261 262 265 270 275 280 284 286 288 290 292 293 294 295 296 296 295 295 295 295 295 294
205 203 202 203 202 203 206 208 207 209 208 205 205 204 202 203 206 208 211 214 216 220 223 227 231 233 235 237 238 238 238 238 239 242 244 246 247 249 251 255 259 262 263 263 264 264 266 268 268 267 265 264 264 263 262 262 261 259 257 255 255 255 257 258 260 263 266 270 275 280 284 287 289 291 293 295 297 298 298 297 296 296 295 295 295 294
205 202 201 202 201 200 202 205 205 205 206 204 204 204 203 204 206 209 212 216 218 222 225 227 231 232 233 234 236 237 239 241 243 245 247 247 249 251 254 259 262 264 266 269 270 271 271 270 267 265 264 264 264 262 260 260 259 258 257 256 256 256 257 259 262 264 267 271 276 280 285 287 289 292 295 297 299 299 298 297 296 296 295 295 294 293
203 201 199 198 198 197 197 200 201 201 204 205 206 207 205 204 207 209 212 216 219 223 226 228 231 233 233 235 237 239 242 244 246 248 248 248 249 253 257 262 266 268 270 272 273 273 271 268 265 264 263 262 261 258 257 257 256 256 256 256 257 258 260 261 263 266 269 272 277 281 285 288 290 293 296 299 300 299 298 297 296 296 295 294 294 293
202 200 197 196 196 197 197 200 201 201 203 205 207 207 207 206 208 209 212 216 219 222 225 227 230 232 234 236 238 241 244 246 247 249 250 251 253 257 262 266 268 270 270 270 270 270 268 265 263 262 261 260 257 255 255 255 255 255 255 256 258 260 261 263 264 267 270 273 278 282 286 288 291 294 297 299 299 298 297 296 296 295 295 294 293 293
199 199 199 198 199 200 199 201 204 203 203 205 206 205 205 208 210 210 212 215 219 221 224 227 230 232 234 237 239 242 245 246 247 249 251 253 256 260 264 266 267 266 266 266 268 268 267 263 260 260 261 260 258 255 254 254 254 255 256 258 260 261 262 264 266 268 271 275 280 284 286 289 293 295 297 298 298 297 297 297 296 295 295 294 294 293
196 197 199 200 201 202 200 199 203 204 204 205 206 205 204 206 210 212 213 216 219 221 225 227 230 232 234 236 239 241 243 244 246 249 251 254 257 260 262 263 263 264 264 265 265 266 266 263 259 258 259 259 258 256 255 254 255 256 258 260 261 263 264 266 268 271 274 278 281 285 288 291 294 296 297 297 297 298 298 297 296 296 295 295 294 294
194 195 198 199 200 203 202 200 201 205 206 206 207 209 209 207 208 212 215 217 220 223 225 228 231 232 233 235 237 239 241 243 246 249 251 253 256 258 260 262 263 263 263 262 261 262 264 264 261 258 257 257 257 256 255 255 255 256 258 260 262 264 266 268 271 274 277 280 283 286 289 292 294 296 297 297 298 298 298 298 298 297 296 296 295 294
192 194 197 199 199 201 202 200 200 202 207 209 210 212 214 212 210 211 215 218 221 224 226 228 230 232 234 235 237 239 241 242 245 248 250 253 256 259 262 263 261 261 261 260 260 262 263 264 263 261 259 258 256 256 255 255 255 256 258 261 263 264 267 270 273 277 279 282 285 288 290 293 294 296 297 298 299 300 299 299 299 299 298 297 297 296
191 194 197 199 200 201 203 204 203 204 206 210 215 216 217 215 212 211 213 217 221 225 227 229 230 231 233 236 238 240 242 243 245 247 250 254 258 261 263 261 258 259 262 262 261 260 260 261 263 263 261 259 257 256 255 254 255 256 258 261 262 264 267 271 274 278 281 284 286 288 291 293 295 296 298 299 300 300 300 300 300 300 300 299 299 299
192 195 198 199 200 202 203 204 205 204 202 206 213 219 219 217 214 211 212 216 221 225 228 230 231 232 233 235 238 240 241 243 246 249 252 256 259 259 258 256 255 258 262 263 261 259 257 260 263 264 262 260 258 256 255 255 256 257 259 260 262 265 268 272 276 279 282 284 287 289 291 294 296 297 299 299 300 300 301 301 301 302 302 302 303 303
193 197 198 199 201 203 204 205 206 205 204 207 211 217 220 219 216 214 213 216 221 225 228 231 232 233 234 236 238 239 242 245 249 252 254 256 257 256 255 255 256 259 261 263 265 263 261 262 264 264 262 261 259 257 256 256 257 258 259 261 263 266 270 274 277 280 282 285 288 290 292 295 296 297 298 299 300 301 302 303 303 304 304 305 305 306
194 198 199 199 201 204 206 208 208 206 207 211 212 214 217 218 217 216 215 217 220 224 227 230 231 232 234 237 238 240 244 247 250 252 252 252 253 255 257 259 261 261 260 260 264 266 267 266 265 265 264 263 260 258 257 256 257 259 261 263 267 270 273 275 278 280 283 286 289 291 293 295 296 297 299 300 302 303 303 304 305 305 306 306 306 306
195 199 201 200 201 204 207 209 209 207 207 209 210 212 215 217 217 218 217 218 220 224 227 229 231 234 236 239 241 243 245 247 249 250 250 250 253 257 260 263 265 265 262 261 262 264 267 267 264 264 264 263 262 260 259 259 260 262 264 267 270 272 274 276 279 282 285 287 290 292 293 294 296 298 300 301 302 303 304 304 305 306 306 305 305 305
198 200 202 202 203 206 209 209 210 212 215 215 212 212 216 218 219 219 219 219 220 223 227 229 231 234 237 240 242 244 246 246 247 249 250 253 256 259 261 264 268 270 270 267 265 264 266 265 262 261 262 262 263 263 262 262 263 265 267 269 270 272 275 278 281 284 286 288 290 291 292 295 298 300 301 302 302 303 304 304 304 304 304 304 304 305
201 203 204 206 208 211 213 213 212 213 218 220 217 213 214 218 221 223 223 222 221 224 227 230 232 235 237 239 242 245 248 248 247 248 252 255 259 261 262 264 269 273 274 273 269 266 265 263 261 260 260 260 261 261 262 263 264 266 268 269 271 274 277 280 283 285 287 288 290 291 294 297 299 300 300 301 302 303 303 303 303 304 304 305 306 307
202 205 207 210 214 215 217 220 219 214 215 218 217 214 214 217 222 225 226 225 224 225 228 231 233 235 237 239 243 247 249 250 249 251 254 257 261 264 265 267 271 273 274 273 269 264 261 261 259 258 258 259 259 260 261 263 265 266 268 270 273 277 280 282 284 286 287 289 291 293 295 297 298 299 300 301 301 302 302 303 304 305 306 307 308 308
203 205 207 211 215 218 219 223 224 220 218 218 217 218 221 223 224 226 228 228 226 227 230 232 234 237 239 242 245 248 250 251 252 253 255 257 261 264 266 268 271 273 274 272 266 261 259 258 257 257 257 258 259 260 262 264 266 268 271 274 277 280 282 283 285 286 288 290 292 294 295 296 297 298 299 300 301 302 303 305 306 307 308 308 309 310
204 207 208 209 213 216 219 223 225 225 224 223 222 224 228 228 227 226 226 227 227 229 231 233 236 239 243 246 250 252 254 254 253 253 254 255 258 262 264 266 270 273 272 267 262 258 256 255 254 255 257 258 260 263 265 266 269 272 275 278 280 281 282 283 285 287 289 290 292 293 294 295 296 297 299 300 301 303 305 307 308 308 309 310 311 311
207 209 210 212 214 216 219 222 224 226 228 228 228 229 230 230 229 226 223 223 226 231 233 234 237 241 244 248 251 253 255 254 252 252 253 254 257 260 262 265 269 270 266 259 254 252 251 251 253 255 258 261 263 266 268 270 272 275 278 280 281 282 283 284 286 287 289 290 291 292 293 294 295 297 299 301 303 305 307 308 309 309 310 311 311 311
211 211 213 216 219 222 225 227 229 230 232 233 233 233 232 231 229 228 226 225 227 231 233 233 235 237 240 244 246 249 252 253 251 249 250 252 255 256 259 263 265 261 253 248 246 247 249 251 254 257 260 263 266 269 271 273 275 276 278 280 281 282 283 284 285 286 287 288 290 291 292 294 296 298 300 303 305 306 307 308 309 310 310 310 311 312
213 214 216 220 224 226 229 232 233 234 236 238 238 238 236 235 234 233 233 233 230 230 232 233 233 235 238 243 246 248 250 250 248 247 248 251 253 255 258 260 257 249 242 242 244 247 250 253 256 259 263 265 268 270 272 274 275 276 278 279 280 281 281 282 283 284 286 287 289 290 292 294 297 300 302 304 306 307 308 309 309 309 310 311 312 313
216 218 221 224 227 229 231 234 236 238 240 240 240 240 239 238 237 236 236 236 233 231 234 238 238 238 240 243 246 247 247 246 246 247 250 252 255 256 254 249 242 238 239 242 245 248 252 255 259 262 265 266 269 270 272 273 274 276 276 276 277 278 279 280 282 283 285 287 289 292 294 297 300 302 303 305 307 307 308 309 309 309 310 311 313 314
220 222 225 226 227 229 233 235 237 238 239 237 236 237 236 235 233 232 232 233 233 232 235 238 239 239 239 241 242 244 245 245 245 246 248 249 248 246 239 233 233 237 241 243 246 250 254 258 261 263 264 266 268 270 271 273 273 273 272 272 274 276 278 280 282 283 286 288 291 295 298 300 302 303 305 306 307 308 308 309 309 310 310 312 314 317
226 226 229 230 229 227 227 228 230 230 229 228 229 231 231 230 230 230 231 233 234 233 233 234 236 236 235 237 240 242 243 243 242 240 239 238 236 233 230 230 234 238 240 243 248 252 256 260 262 263 265 266 268 269 270 270 269 268 269 271 273 275 277 280 282 285 288 291 294 298 300 302 303 305 306 307 307 308 308 308 309 310 311 313 316 319
230 228 229 231 231 229 224 221 221 221 220 221 223 223 223 222 223 226 229 232 233 232 232 232 233 232 231 231 234 236 235 234 233 233 233 233 232 231 232 232 233 235 238 243 249 254 258 261 262 263 265 266 266 265 264 264 264 266 268 270 273 275 278 281 284 287 291 294 297 299 301 303 304 305 306 307 307 308 307 307 308 310 312 316 319 321
229 226 226 226 226 226 222 216 214 215 216 218 218 216 216 216 219 221 223 225 226 228 229 230 228 226 226 227 228 228 228 227 228 229 231 231 232 235 237 236 234 235 239 244 250 255 259 260 261 262 262 262 260 259 259 261 262 265 268 271 274 276 279 282 286 289 293 296 299 301 302 303 304 305 306 306 307 307 307 307 308 311 314 318 321 323
222 217 219 219 219 220 219 216 216 217 217 217 215 214 215 217 218 219 221 221 221 222 224 225 224 222 223 224 225 225 226 227 229 229 230 231 234 240 243 240 236 236 241 248 254 257 258 258 259 259 257 255 255 256 257 259 262 265 268 271 274 276 279 283 288 292 296 298 300 301 303 304 305 306 306 306 307 307 307 307 310 313 317 320 322 324
219 213 213 214 213 214 215 216 217 215 214 215 213 213 214 216 217 219 223 225 225 223 222 223 224 224 223 223 224 225 226 228 230 230 232 235 238 241 243 241 240 241 247 252 254 255 256 256 256 253 251 251 252 254 256 259 262 265 268 270 272 276 281 286 290 294 297 299 300 302 303 305 306 306 306 306 307 307 307 309 312 316 319 322 324 327
216 208 207 208 208 211 214 216 215 214 213 213 213 213 215 216 218 220 223 225 226 225 224 223 224 225 226 227 228 229 231 232 232 233 234 237 238 239 239 241 244 246 249 251 252 252 252 251 249 247 247 248 251 253 256 258 261 264 266 269 273 278 284 289 293 296 298 299 301 302 304 306 306 306 307 307 308 308 309 312 315 318 321 324 326 330
Height
5726 5730 5734 5739 5745 5749 5751 5755 5759 5762 5764 5766 5768 5770 5773 5776 5779 5782 5783 5785 5787 5788 5790 5791 5791 5791 5793 5794 5793 5792 5791 5792 5792 5794 5797 5800 5803 5806 5809 5810 5812 5814 5816 5817 5818 5818 5819 5820 5820 5821 5822 5823 5824 5825 5826 5827 5828 5828 5829 5829 5830 5831 5832 5832 5832 5831 5831 5831 5831 5831 5831 5831 5830 5830 5829 5828 5828 5827 5826 5826 5825 5825 5824 5823 5822 5821
5722 5725 5731 5739 5743 5746 5749 5753 5757 5759 5761 5763 5765 5768 5771 5774 5778 5779 5780 5781 5784 5785 5787 5788 5788 5789 5790 5790 5790 5792 5793 5792 5792 5793 5795 5799 5802 5804 5806 5808 5811 5813 5813 5814 5815 5815 5816 5817 5818 5819 5820 5821 5822 5823 5824 5825 5826 5826 5827 5827 5828 5829 5830 5830 5830 5829 5829 5829 5830 5830 5829 5829 5828 5827 5826 5826 5825 5825 5824 5824 5823 5823 5822 5821 5821 5819
5717 5721 5729 5735 5739 5742 5745 5749 5753 5756 5759 5761 5763 5766 5769 5773 5776 5776 5777 5779 5780 5782 5784 5786 5786 5786 5787 5787 5788 5791 5793 5794 5795 5794 5795 5798 5801 5803 5805 5807 5809 5810 5811 5812 5812 5813 5815 5815 5816 5817 5817 5818 5819 5821 5822 5822 5823 5824 5824 5825 5826 5826 5827 5827 5828 5828 5827 5827 5828 5827 5827 5826 5826 5825 5824 5824 5823 5823 5823 5822 5821 5820 5820 5820 5819 5818
5713 5719 5727 5732 5735 5738 5742 5746 5750 5753 5756 5758 5760 5763 5767 5771 5773 5773 5774 5776 5777 5780 5782 5784 5784 5784 5785 5785 5786 5789 5791 5793 5795 5794 5794 5797 5799 5801 5803 5806 5808 5809 5809 5810 5811 5812 5813 5813 5814 5815 5815 5816 5817 5818 5819 5820 5821 5821 5822 5823 5823 5824 5824 5825 5825 5825 5826 5826 5826 5825 5825 5824 5823 5823 5822 5822 5822 5821 5821 5820 5819 5818 5818 5817 5817 5816
5712 5719 5725 5729 5733 5735 5739 5743 5747 5751 5753 5755 5758 5762 5766 5769 5770 5771 5772 5774 5775 5777 5780 5782 5782 5781 5781 5782 5784 5787 5789 5791 5792 5793 5793 5795 5797 5800 5802 5804 5806 5807 5808 5809 5810 5810 5811 5812 5812 5813 5813 5814 5815 5816 5817 5818 5819 5819 5820 5821 5821 5821 5822 5822 5822 5823 5823 5824 5823 5823 5823 5822 5821 5821 5820 5820 5819 5819 5818 5818 5817 5816 5816 5815 5814 5814
5709 5716 5723 5727 5730 5733 5736 5741 5745 5749 5751 5753 5757 5760 5764 5766 5767 5769 5771 5772 5773 5774 5777 5779 5779 5778 5778 5779 5783 5785 5787 5790 5791 5791 5792 5793 5795 5798 5800 5802 5804 5806 5806 5807 5808 5809 5809 5810 5811 5811 5812 5812 5813 5814 5815 5816 5817 5818 5818 5819 5819 5819 5819 5820 5820 5820 5821 5821 5821 5821 5820 5820 5819 5818 5818 5818 5817 5816 5816 5815 5814 5813 5813 5812 5812 5811
5706 5713 5719 5723 5727 5730 5733 5738 5743 5746 5748 5751 5755 5758 5761 5762 5765 5767 5769 5770 5771 5773 5776 5777 5776 5776 5776 5777 5780 5784 5787 5788 5789 5791 5792 5793 5794 5796 5798 5800 5802 5804 5805 5805 5806 5807 5808 5809 5810 5810 5811 5811 5812 5813 5814 5815 5815 5816 5816 5817 5817 5817 5817 5818 5818 5818 5818 5818 5818 5818 5818 5817 5816 5816 5815 5815 5815 5814 5814 5813 5812 5811 5810 5809 5809 5809
5704 5710 5715 5719 5723 5726 5730 5736 5741 5744 5746 5749 5753 5756 5758 5760 5762 5765 5767 5768 5769 5771 5774 5774 5774 5775 5775 5776 5778 5781 5784 5786 5787 5789 5791 5791 5792 5795 5797 5799 5800 5801 5803 5804 5804 5805 5806 5807 5809 5809 5809 5810 5811 5811 5812 5813 5813 5814 5814 5815 5815 5815 5815 5816 5816 5816 5816 5816 5816 5816 5816 5815 5814 5814 5813 5813 5813 5812 5811 5811 5810 5809 5808 5807 5807 5806
5702 5708 5713 5716 5719 5722 5728 5734 5739 5741 5744 5747 5751 5754 5756 5759 5761 5764 5766 5766 5768 5769 5770 5770 5771 5772 5773 5774 5775 5778 5780 5782 5785 5786 5788 5789 5791 5793 5795 5797 5799 5800 5801 5802 5803 5804 5805 5805 5806 5807 5808 5808 5809 5809 5810 5810 5811 5812 5812 5813 5813 5813 5814 5814 5814 5814 5814 5814 5814 5814 5813 5813 5812 5812 5811 5810 5810 5809 5809 5808 5807 5807 5806 5805 5804 5804
5700 5706 5710 5713 5717 5722 5727 5732 5736 5739 5742 5745 5748 5751 5755 5757 5759 5762 5762 5763 5765 5766 5766 5768 5769 5770 5771 5772 5773 5774 5776 5780 5783 5785 5785 5787 5789 5792 5794 5795 5797 5798 5799 5800 5801 5802 5803 5803 5804 5805 5805 5806 5806 5807 5807 5808 5809 5809 5810 5810 5811 5812 5812 5812 5812 5812 5812 5811 5811 5811 5811 5811 5810 5809 5809 5808 5807 5806 5805 5805 5804 5803 5802 5802 5801 5801
5698 5703 5707 5710 5715 5720 5725 5730 5733 5736 5740 5742 5746 5749 5752 5754 5756 5758 5759 5760 5762 5762 5764 5767 5767 5767 5769 5770 5771 5773 5777 5780 5782 5783 5784 5786 5787 5789 5792 5793 5795 5796 5797 5798 5799 5800 5801 5801 5802 5802 5803 5803 5804 5804 5805 5805 5806 5806 5807 5808 5809 5809 5810 5810 5810 5809 5809 5809 5809 5808 5808 5808 5807 5806 5805 5805 5804 5803 5802 5802 5801 5800 5799 5798 5798 5797
5694 5698 5703 5707 5712 5716 5722 5726 5729 5732 5735 5739 5742 5746 5749 5751 5753 5754 5755 5756 5756 5758 5763 5765 5764 5765 5766 5767 5770 5773 5777 5779 5780 5782 5783 5784 5786 5787 5789 5791 5793 5794 5795 5796 5796 5797 5798 5799 5799 5800 5800 5801 5801 5802 5803 5803 5803 5804 5805 5806 5806 5806 5807 5807 5807 5806 5806 5806 5806 5806 5805 5805 5804 5803 5802 5801 5801 5800 5799 5798 5798 5797 5796 5795 5795 5794
5689 5694 5699 5703 5707 5712 5717 5721 5723 5726 5730 5734 5737 5741 5744 5747 5749 5749 5750 5751 5752 5756 5761 5762 5762 5763 5764 5766 5770 5772 5775 5777 5778 5780 5781 5783 5784 5786 5788 5789 5790 5791 5792 5793 5794 5795 5795 5796 5797 5797 5797 5798 5799 5799 5800 5801 5801 5802 5802 5803 5803 5803 5804 5804 5804 5803 5803 5803 5803 5802 5802 5801 5801 5800 5799 5798 5797 5797 5796 5795 5794 5793 5793 5792 5792 5791
5684 5689 5694 5698 5702 5707 5712 5715 5717 5721 5725 5729 5732 5735 5738 5741 5742 5743 5745 5747 5750 5754 5757 5759 5761 5761 5761 5764 5767 5769 5772 5774 5775 5777 5779 5781 5783 5784 5786 5787 5788 5789 5790 5791 5791 5792 5793 5793 5794 5794 5794 5795 5796 5796 5798 5798 5798 5799 5799 5800 5800 5800 5801 5801 5801 5801 5801 5800 5800 5799 5799 5798 5798 5797 5796 5795 5794 5793 5793 5792 5791 5790 5790 5789 5788 5788
5681 5685 5689 5693 5698 5703 5708 5712 5716 5720 5725 5727 5730 5733 5735 5737 5739 5741 5743 5745 5748 5751 5754 5756 5757 5756 5757 5761 5764 5766 5769 5770 5771 5774 5777 5779 5781 5783 5784 5785 5786 5787 5788 5788 5788 5789 5790 5790 5790 5791 5792 5793 5793 5793 5795 5795 5796 5796 5796 5797 5797 5798 5798 5798 5798 5798 5798 5798 5797 5796 5796 5795 5795 5794 5793 5792 5791 5790 5790 5789 5788 5787 5786 5785 5785 5784
5679 5683 5688 5692 5696 5701 5705 5709 5713 5717 5722 5725 5727 5729 5732 5736 5739 5741 5743 5746 5748 5750 5751 5752 5753 5753 5755 5759 5762 5763 5765 5767 5768 5771 5774 5777 5780 5781 5783 5784 5784 5785 5786 5786 5786 5786 5787 5787 5788 5788 5789 5790 5790 5791 5792 5792 5793 5793 5794 5794 5795 5795 5795 5795 5796 5796 5795 5795 5794 5794 5793 5793 5792 5791 5790 5789 5788 5788 5787 5786 5785 5784 5783 5782 5781 5780
5676 5681 5687 5691 5695 5700 5703 5707 5710 5713 5717 5720 5722 5725 5731 5736 5738 5739 5742 5745 5746 5747 5748 5749 5750 5751 5754 5756 5758 5760 5762 5764 5767 5769 5773 5775 5778 5780 5781 5782 5782 5783 5783 5783 5783 5783 5784 5785 5785 5786 5787 5787 5787 5788 5789 5789 5790 5791 5791 5792 5792 5793 5793 5793 5793 5793 5792 5792 5791 5791 5790 5789 5789 5788 5787 5786 5785 5785 5784 5783 5781 5780 5779 5779 5778 5777
5674 5679 5684 5688 5693 5698 5702 5705 5708 5711 5714 5717 5720 5725 5730 5733 5734 5737 5740 5741 5742 5744 5745 5746 5747 5749 5751 5753 5755 5757 5759 5762 5765 5768 5771 5773 5775 5777 5779 5780 5780 5781 5781 5781 5781 5781 5782 5782 5783 5783 5784 5784 5784 5785 5786 5786 5787 5788 5789 5789 5790 5790 5790 5789 5789 5789 5789 5789 5788 5788 5787 5787 5786 5785 5784 5783 5783 5782 5781 5779 5778 5777 5776 5775 5774 5773
5673 5678 5683 5686 5691 5696 5699 5702 5704 5707 5711 5716 5721 5724 5727 5728 5730 5734 5735 5736 5738 5740 5741 5742 5744 5747 5749 5750 5753 5757 5759 5762 5764 5767 5769 5772 5773 5775 5776 5777 5778 5778 5778 5778 5778 5779 5780 5780 5780 5780 5781 5781 5782 5782 5783 5784 5785 5786 5786 5787 5787 5786 5786 5786 5785 5786 5786 5786 5786 5785 5785 5784 5783 5782 5781 5781 5780 5779 5778 5776 5775 5774 5773 5771 5770 5769
5671 5676 5681 5684 5689 5693 5694 5696 5700 5703 5708 5714 5717 5720 5723 5727 5729 5732 5733 5734 5735 5737 5739 5740 5741 5743 5746 5748 5752 5757 5759 5762 5764 5766 5768 5770 5771 5773 5774 5774 5774 5775 5775 5775 5776 5777 5777 5778 5778 5778 5778 5778 5779 5779 5780 5781 5782 5783 5783 5783 5783 5783 5782 5782 5782 5783 5783 5783 5783 5782 5782 5781 5780 5779 5779 5778 5777 5776 5774 5773 5772 5770 5769 5768 5766 5765
5668 5673 5678 5681 5686 5688 5689 5693 5698 5702 5706 5709 5711 5714 5718 5722 5726 5729 5731 5732 5734 5735 5737 5738 5738 5741 5745 5748 5752 5755 5757 5760 5762 5764 5766 5768 5769 5770 5770 5771 5771 5772 5772 5773 5774 5774 5775 5775 5775 5775 5775 5776 5776 5777 5777 5778 5779 5779 5779 5780 5780 5779 5779 5779 5780 5780 5780 5780 5779 5779 5778 5778 5777 5777 5776 5775 5773 5772 5771 5769 5768 5766 5765 5764 5762 5761
5665 5670 5675 5678 5681 5685 5688 5693 5698 5702 5704 5707 5709 5711 5715 5718 5721 5724 5726 5728 5731 5733 5734 5736 5737 5741 5745 5747 5749 5752 5754 5757 5759 5761 5763 5765 5766 5767 5768 5768 5768 5769 5770 5771 5772 5773 5773 5774 5773 5773 5773 5773 5773 5773 5774 5775 5775 5775 5776 5776 5776 5776 5776 5776 5777 5777 5777 5776 5776 5775 5775 5774 5774 5773 5772 5771 5769 5768 5766 5765 5764 5762 5761 5760 5758 5757
5663 5668 5671 5675 5678 5682 5687 5692 5696 5700 5702 5705 5708 5710 5714 5716 5719 5722 5724 5726 5729 5730 5732 5735 5736 5739 5742 5744 5747 5749 5751 5754 5757 5759 5761 5762 5763 5764 5765 5765 5766 5766 5767 5768 5770 5770 5771 5771 5771 5770 5770 5770 5770 5770 5770 5771 5771 5771 5772 5772 5772 5773 5773 5773 5773 5773 5773 5773 5772 5772 5771 5771 5770 5769 5768 5767 5765 5764 5762 5761 5760 5758 5757 5755 5754 5753
5662 5666 5670 5673 5676 5680 5685 5689 5693 5696 5699 5701 5704 5707 5711 5714 5717 5720 5723 5726 5728 5729 5731 5734 5734 5737 5740 5742 5744 5746 5749 5752 5754 5756 5758 5759 5760 5761 5762 5762 5763 5764 5765 5765 5766 5767 5768 5768 5767 5766 5766 5766 5767 5767 5767 5768 5768 5768 5768 5769 5769 5770 5770 5770 5770 5770 5770 5769 5769 5768 5768 5767 5766 5765 5764 5763 5762 5760 5759 5757 5756 5754 5753 5751 5750 5748
5660 5664 5668 5671 5674 5677 5680 5684 5687 5691 5694 5697 5701 5704 5708 5712 5715 5718 5721 5723 5725 5727 5729 5731 5732 5735 5738 5740 5742 5744 5747 5749 5751 5753 5755 5756 5757 5758 5759 5759 5760 5761 5761 5762 5762 5763 5763 5763 5763 5762 5762 5762 5763 5763 5764 5764 5764 5765 5765 5765 5766 5766 5767 5767 5767 5767 5766 5766 5765 5765 5764 5763 5762 5761 5760 5759 5758 5756 5754 5753 5751 5750 5748 5747 5745 5744
5659 5662 5665 5668 5670 5673 5676 5679 5682 5686 5690 5694 5698 5701 5706 5709 5711 5714 5717 5719 5721 5723 5726 5727 5729 5732 5736 5738 5740 5743 5745 5747 5749 5750 5752 5753 5754 5754 5755 5756 5757 5757 5758 5758 5758 5758 5759 5759 5759 5759 5758 5759 5759 5759 5760 5761 5761 5762 5762 5762 5763 5763 5764 5764 5763 5763 5763 5762 5762 5761 5760 5759 5758 5757 5756 5755 5753 5752 5750 5748 5747 5745 5744 5742 5741 5740
5657 5660 5664 5666 5669 5672 5676 5680 5683 5686 5689 5691 5694 5698 5702 5705 5708 5711 5713 5715 5718 5721 5722 5724 5726 5729 5732 5736 5739 5741 5743 5745 5746 5747 5748 5749 5750 5751 5752 5752 5753 5753 5754 5754 5754 5754 5754 5755 5755 5755 5755 5755 5755 5756 5757 5757 5758 5758 5759 5759 5760 5760 5760 5760 5760 5760 5759 5758 5758 5757 5756 5755 5754 5753 5752 5750 5749 5747 5745 5744 5742 5741 5739 5738 5736 5735
5653 5657 5661 5665 5668 5672 5676 5680 5683 5686 5688 5690 5693 5696 5699 5702 5704 5707 5709 5712 5716 5718 5720 5722 5724 5727 5730 5733 5736 5739 5740 5742 5743 5744 5744 5745 5746 5747 5748 5749 5749 5749 5750 5751 5751 5750 5750 5750 5751 5751 5751 5752 5752 5753 5754 5754 5755 5755 5755 5756 5756 5756 5756 5757 5756 5756 5755 5755 5754 5753 5752 5751 5750 5749 5747 5745 5744 5742 5741 5739 5738 5736 5735 5733 5732 5730
5651 5656 5659 5663 5667 5670 5673 5676 5680 5684 5687 5689 5691 5694 5696 5699 5701 5704 5707 5710 5713 5715 5717 5720 5722 5725 5728 5731 5733 5735 5736 5738 5739 5739 5740 5741 5742 5744 5744 5745 5745 5746 5746 5747 5747 5747 5747 5747 5747 5747 5748 5749 5749 5750 5751 5751 5751 5752 5752 5752 5752 5753 5753 5753 5752 5752 5751 5751 5750 5749 5748 5747 5746 5744 5742 5741 5739 5738 5736 5734 5733 5731 5730 5728 5727 5725
5650 5654 5657 5660 5664 5668 5671 5674 5677 5681 5684 5687 5689 5692 5694 5697 5700 5702 5704 5707 5709 5712 5714 5717 5719 5722 5725 5727 5729 5730 5732 5734 5735 5735 5736 5738 5739 5740 5740 5741 5742 5742 5742 5743 5743 5744 5744 5744 5744 5744 5745 5745 5746 5747 5747 5747 5748 5748 5748 5749 5749 5749 5749 5749 5748 5747 5747 5746 5746 5745 5744 5743 5741 5740 5738 5736 5735 5733 5731 5730 5728 5727 5725 5724 5722 5720
5648 5651 5654 5658 5662 5666 5669 5673 5675 5678 5681 5684 5687 5689 5692 5694 5697 5699 5701 5703 5706 5708 5711 5713 5715 5717 5720 5723 5725 5727 5729 5730 5731 5732 5733 5735 5736 5736 5737 5737 5738 5739 5739 5739 5740 5740 5740 5741 5741 5741 5742 5742 5743 5743 5743 5744 5744 5744 5745 5745 5745 5745 5745 5745 5744 5744 5743 5743 5742 5741 5740 5738 5737 5735 5734 5732 5730 5729 5727 5725 5724 5722 5720 5719 5717 5715
5646 5649 5651 5655 5659 5663 5666 5670 5673 5676 5679 5682 5684 5687 5689 5691 5693 5695 5697 5700 5703 5705 5707 5709 5712 5715 5718 5720 5721 5723 5725 5726 5727 5729 5730 5731 5732 5733 5733 5734 5735 5736 5736 5736 5736 5737 5737 5738 5738 5738 5739 5739 5739 5740 5740 5740 5741 5741 5741 5741 5741 5741 5741 5741 5741 5740 5740 5739 5738 5737 5736 5734 5733 5731 5730 5728 5726 5725 5723 5721 5720 5718 5716 5714 5712 5711
5644 5646 5650 5654 5657 5660 5664 5667 5670 5673 5676 5678 5681 5683 5686 5688 5690 5693 5695 5697 5700 5702 5704 5707 5710 5713 5715 5717 5718 5720 5722 5723 5724 5726 5727 5728 5729 5729 5730 5731 5732 5733 5733 5733 5734 5734 5735 5735 5735 5735 5735 5735 5736 5736 5737 5737 5737 5737 5738 5738 5738 5738 5738 5737 5737 5737 5736 5735 5734 5733 5731 5730 5729 5727 5726 5724 5723 5721 5719 5717 5716 5714 5712 5710 5708 5706
5642 5646 5649 5653 5656 5658 5662 5665 5667 5668 5671 5675 5678 5681 5683 5685 5687 5690 5692 5695 5697 5700 5702 5705 5707 5710 5712 5713 5715 5717 5719 5721 5722 5723 5724 5725 5726 5726 5727 5729 5730 5730 5730 5730 5731 5732 5732 5732 5732 5732 5732 5732 5732 5733 5733 5734 5734 5734 5734 5734 5734 5734 5734 5734 5733 5733 5732 5731 5730 5729 5727 5726 5725 5724 5722 5721 5719 5717 5715 5714 5712 5710 5708 5706 5704 5702
5641 5644 5648 5651 5654 5657 5659 5662 5663 5665 5669 5673 5676 5678 5680 5682 5685 5687 5689 5692 5695 5697 5700 5702 5704 5707 5709 5711 5712 5714 5716 5717 5718 5719 5720 5721 5723 5723 5725 5726 5726 5726 5726 5727 5728 5728 5729 5729 5728 5728 5729 5729 5729 5730 5730 5730 5730 5730 5730 5731 5731 5730 5730 5730 5730 5729 5728 5727 5726 5725 5724 5722 5721 5720 5718 5717 5715 5713 5711 5710 5708 5706 5704 5702 5699 5697
5641 5644 5646 5649 5652 5654 5656 5658 5660 5664 5667 5671 5673 5676 5678 5680 5682 5684 5686 5689 5692 5694 5697 5699 5702 5704 5706 5708 5709 5711 5712 5714 5715 5716 5717 5718 5720 5721 5722 5723 5723 5723 5723 5724 5724 5725 5725 5725 5725 5725 5725 5726 5726 5726 5727 5727 5727 5727 5727 5727 5727 5727 5727 5726 5726 5725 5725 5724 5723 5721 5720 5719 5717 5716 5714 5713 5711 5709 5708 5706 5703 5701 5699 5697 5695 5692
5640 5643 5645 5647 5649 5651 5654 5656 5659 5662 5664 5667 5671 5674 5676 5678 5680 5682 5684 5687 5689 5691 5694 5696 5698 5700 5702 5704 5706 5708 5709 5711 5712 5713 5714 5716 5717 5717 5718 5719 5720 5720 5721 5721 5721 5721 5721 5721 5721 5722 5722 5722 5723 5723 5724 5724 5724 5724 5724 5724 5724 5724 5723 5723 5722 5722 5721 5720 5719 5718 5716 5715 5714 5712 5710 5709 5707 5706 5704 5701 5699 5697 5695 5692 5690 5687
5639 5642 5645 5647 5648 5650 5652 5655 5657 5659 5662 5665 5669 5671 5674 5676 5678 5680 5682 5684 5687 5689 5691 5693 5695 5697 5699 5701 5703 5705 5706 5707 5709 5711 5712 5713 5713 5714 5714 5715 5717 5717 5717 5717 5718 5718 5718 5718 5718 5719 5719 5719 5720 5720 5721 5721 5721 5721 5721 5721 5720 5720 5720 5719 5718 5718 5718 5717 5715 5714 5713 5711 5710 5708 5707 5705 5703 5702 5700 5697 5695 5693 5690 5688 5685 5683
5637 5640 5642 5645 5646 5649 5651 5653 5655 5657 5660 5664 5667 5669 5672 5674 5676 5678 5680 5681 5684 5687 5689 5691 5693 5694 5697 5699 5700 5702 5703 5705 5707 5708 5709 5709 5710 5710 5711 5712 5713 5713 5713 5714 5714 5714 5714 5715 5715 5716 5716 5717 5717 5717 5718 5718 5718 5718 5717 5717 5717 5716 5716 5715 5715 5715 5714 5713 5712 5711 5709 5708 5706 5704 5703 5701 5699 5698 5696 5693 5691 5689 5686 5684 5681 5678
5635 5637 5639 5641 5643 5646 5649 5651 5653 5655 5658 5661 5663 5666 5669 5671 5673 5674 5676 5679 5682 5684 5685 5688 5690 5692 5694 5696 5697 5699 5701 5702 5703 5704 5704 5705 5706 5706 5707 5709 5710 5710 5710 5710 5710 5711 5712 5712 5713 5713 5713 5714 5714 5715 5715 5715 5715 5714 5714 5713 5713 5713 5713 5712 5711 5711 5711 5710 5708 5707 5705 5704 5702 5701 5699 5697 5696 5694 5692 5690 5687 5685 5682 5680 5677 5674
5633 5635 5638 5640 5642 5644 5646 5648 5650 5652 5654 5657 5660 5663 5666 5668 5669 5671 5674 5677 5680 5681 5683 5686 5688 5690 5691 5693 5694 5696 5697 5697 5698 5700 5701 5702 5703 5703 5704 5706 5706 5707 5707 5707 5708 5708 5709 5709 5710 5710 5711 5711 5711 5711 5711 5711 5711 5711 5711 5710 5710 5710 5709 5709 5708 5708 5707 5706 5705 5703 5702 5700 5699 5697 5696 5694 5692 5690 5688 5686 5684 5681 5679 5676 5673 5670
5633 5635 5638 5640 5642 5644 5646 5647 5649 5650 5652 5655 5657 5660 5662 5664 5665 5669 5673 5675 5677 5678 5680 5683 5685 5687 5688 5690 5691 5692 5693 5693 5694 5696 5697 5698 5699 5700 5701 5702 5703 5703 5703 5704 5705 5706 5706 5707 5707 5708 5708 5708 5708 5708 5708 5708 5708 5708 5707 5707 5707 5706 5706 5706 5705 5704 5703 5702 5701 5700 5698 5697 5695 5694 5693 5691 5689 5687 5685 5683 5680 5678 5675 5673 5670 5667
5633 5635 5638 5639 5641 5643 5644 5646 5647 5649 5651 5653 5655 5657 5660 5661 5664 5667 5670 5672 5674 5676 5678 5680 5682 5684 5685 5687 5688 5689 5689 5690 5691 5692 5693 5694 5696 5697 5698 5699 5699 5700 5701 5702 5703 5703 5704 5704 5705 5705 5705 5705 5705 5705 5705 5705 5705 5705 5705 5704 5704 5703 5703 5703 5702 5701 5700 5699 5697 5696 5695 5693 5692 5691 5690 5688 5686 5684 5682 5680 5677 5675 5672 5670 5667 5663
5632 5634 5636 5638 5639 5641 5642 5644 5645 5647 5649 5651 5653 5655 5657 5659 5661 5664 5666 5668 5671 5673 5675 5676 5679 5680 5682 5684 5685 5685 5686 5687 5688 5689 5690 5691 5692 5693 5694 5695 5696 5697 5699 5699 5700 5701 5701 5702 5702 5702 5702 5702 5702 5702 5702 5702 5702 5702 5702 5701 5701 5700 5700 5699 5699 5697 5696 5695 5694 5693 5692 5690 5689 5688 5686 5685 5683 5681 5679 5677 5674 5672 5669 5666 5664 5660
5630 5632 5633 5635 5636 5638 5640 5641 5643 5645 5646 5648 5649 5651 5653 5655 5657 5659 5662 5664 5666 5669 5671 5673 5674 5676 5679 5680 5681 5682 5682 5683 5685 5686 5687 5688 5689 5690 5691 5692 5694 5695 5696 5697 5697 5698 5699 5699 5699 5699 5699 5699 5699 5699 5699 5699 5699 5699 5699 5698 5698 5697 5697 5696 5695 5694 5693 5692 5691 5690 5689 5687 5686 5684 5683 5682 5680 5677 5675 5673 5671 5668 5666 5663 5661 5657
5628 5629 5630 5632 5633 5635 5636 5638 5640 5641 5642 5644 5645 5647 5649 5652 5654 5656 5658 5660 5662 5665 5667 5669 5671 5673 5675 5676 5677 5678 5679 5680 5682 5683 5684 5685 5686 5687 5689 5690 5692 5692 5693 5694 5695 5695 5696 5696 5696 5696 5696 5696 5696 5696 5696 5696 5696 5696 5696 5695 5695 5694 5694 5693 5692 5691 5690 5689 5688 5687 5686 5684 5683 5681 5679 5678 5677 5674 5672 5670 5668 5665 5663 5660 5658 5654
5625 5626 5627 5629 5630 5632 5634 5636 5637 5638 5640 5641 5642 5644 5646 5649 5651 5653 5655 5657 5659 5661 5663 5665 5667 5669 5670 5672 5673 5674 5675 5677 5678 5680 5681 5682 5684 5685 5687 5688 5689 5689 5690 5691 5691 5692 5693 5693 5693 5693 5693 5693 5693 5693 5693 5693 5693 5693 5693 5692 5692 5691 5691 5690 5689 5688 5688 5687 5686 5684 5683 5682 5680 5678 5676 5675 5673 5671 5669 5667 5665 5663 5660 5658 5655 5652
5621 5623 5624 5626 5628 5630 5631 5633 5635 5636 5637 5638 5640 5642 5644 5646 5648 5650 5652 5654 5656 5658 5660 5662 5663 5665 5667 5668 5670 5671 5672 5674 5675 5677 5678 5680 5682 5683 5684 5685 5685 5686 5687 5687 5688 5689 5690 5690 5690 5690 5690 5690 5690 5690 5690 5691 5690 5690 5690 5689 5689 5688 5688 5687 5687 5686 5685 5684 5683 5682 5681 5679 5677 5675 5673 5671 5670 5668 5666 5664 5662 5660 5657 5655 5652 5649
5619 5620 5622 5624 5626 5628 5630 5632 5633 5634 5635 5637 5638 5640 5642 5644 5646 5648 5649 5651 5653 5654 5656 5658 5660 5662 5663 5665 5666 5668 5669 5671 5673 5674 5676 5678 5679 5680 5681 5682 5682 5683 5684 5684 5685 5686 5686 5687 5687 5687 5687 5688 5688 5688 5688 5688 5688 5687 5687 5687 5686 5686 5685 5685 5685 5684 5683 5681 5680 5679 5678 5676 5674 5672 5670 5668 5666 5665 5663 5661 5659 5657 5655 5652 5649 5646
5618 5619 5621 5622 5624 5626 5628 5629 5630 5631 5633 5634 5635 5637 5639 5641 5643 5645 5647 5648 5650 5651 5653 5655 5657 5658 5660 5662 5663 5665 5667 5668 5670 5672 5673 5675 5676 5676 5677 5678 5679 5680 5680 5681 5682 5683 5683 5684 5684 5684 5685 5685 5685 5685 5685 5685 5685 5685 5685 5684 5684 5684 5683 5683 5682 5682 5681 5679 5678 5676 5675 5674 5672 5670 5668 5666 5663 5661 5660 5658 5656 5654 5652 5649 5646 5643
5617 5618 5619 5621 5622 5623 5624 5625 5626 5628 5630 5631 5633 5634 5636 5637 5639 5641 5643 5645 5647 5648 5650 5651 5654 5656 5657 5659 5661 5663 5664 5666 5667 5669 5670 5671 5672 5673 5674 5675 5676 5677 5677 5678 5679 5680 5680 5681 5681 5682 5682 5682 5682 5683 5683 5683 5683 5682 5682 5682 5682 5682 5681 5681 5680 5679 5678 5677 5676 5674 5673 5671 5669 5667 5665 5663 5661 5659 5657 5655 5654 5652 5649 5646 5643 5640